Regional Weather Roundup
Issued by NWS

Home | Current Version | Previous Version | Text Only | Print | Product List | Glossary On
Versions: 1 2 3 4 5 6 7 8 9 10 11 12 13 14 15 16 17 18 19 20 21 22 23 24 25 26 27 28 29 30 31 32 33 34 35 36 37 38 39 40 41 42 43 44 45 46 47 48 49 50
000
ASUS43 KMPX 221110
RWRMN
WEATHER ROUNDUP FOR MINNESOTA
NATIONAL WEATHER SERVICE TWIN CITIES/CHANHASSEN MN
600 AM CDT TUE AUG 22 2017


NOTE: "FAIR" INDICATES FEW OR NO CLOUDS BELOW 12,000 FEET WITH NO
SIGNIFICANT WEATHER AND/OR OBSTRUCTIONS TO VISIBILITY. N/A MEANS
CURRENT SKY AND/OR WEATHER CONDITIONS ARE NOT AVAILABLE.

MNZ060>063-068>070-221200-
   Twin Cities Metro

CITY           SKY/WX    TMP DP  RH WIND       PRES   REMARKS
TWIN CITIES    CLEAR     61  56  83 NW13      29.95R
ST PAUL        CLEAR     61  58  90 NW16      29.94R
CRYSTAL        CLEAR     59  53  80 NW13      29.95R
BLAINE         CLEAR     61  59  94 NW13      29.95R
LAKEVILLE      CLEAR     57  57 100 NW7       29.96R
EDEN PRAIRIE   CLEAR     62  55  77 NW15G23   29.95R
SOUTH ST PAUL  CLEAR     62  59  90 NW9       29.94R
LAKE ELMO      FAIR      61  59  94 NW9G16    29.95R
$$
MNZ001>005-007-008-013>017-022>024-027-028-221200-
   Northwest Minnesota

CITY           SKY/WX    TMP DP  RH WIND       PRES   REMARKS
BEMIDJI        CLEAR     46  46 100 W3        29.97S
HALLOCK        CLEAR     48  45  87 NW6       29.99R
ROSEAU         CLEAR     48  45  87 W9        29.95S
WARROAD        CLEAR     48  45  87 W8        29.94S
THIEF RVR FALL CLEAR     48  44  86 W8        30.00R
CROOKSTON      CLEAR     45  43  93 NW7       30.01R
FOSSTON        CLEAR     43  43 100 SW3       30.00S
DETROIT LAKES  CLEAR     52  50  93 W3        30.03S
MOORHEAD       CLEAR     48  46  93 CALM      30.03S
PARK RAPIDS    CLEAR     49  47  93 W7        30.00R
MAHNOMEN       FAIR      46  45  99 S3        30.01R
$$
MNZ006-009>011-018-025>026-221200-
   North Central Minnesota

CITY           SKY/WX    TMP DP  RH WIND       PRES   REMARKS
BAUDETTE       PTCLDY    49  48  97 W6        29.92S
FLAG ISLAND      N/A     52  48  87 W6        29.90S
INTL FALLS     CLOUDY    50  49  96 W6        29.89F
WASKISH        PTCLDY    55  52  88 NW12G17   29.94S
BIG FORK       CLEAR     50  48  93 CALM      29.94S
LONGVILLE      CLEAR     55  52  88 W6        29.96S
GRAND RAPIDS   CLEAR     53  51  93 NW9       29.96R
CRANE LAKE     MOCLDY    52  50  93 CALM      29.90S
ORR            CLEAR     52  48  87 W5        29.89S
COOK           CLOUDY    52  52 100 W5        29.91S
WALKER         FAIR      48  47  97 W7        29.98S
$$
MNZ012-019>021-037-221200-
   Northeast Minnesota

CITY           SKY/WX    TMP DP  RH WIND       PRES   REMARKS
DULUTH         MOCLDY    52  52 100 NW10      29.90R
ELY            MOCLDY    54  52  94 W5        29.88R
HIBBING        CLEAR     50  50 100 NW9       29.91R
EVELETH        MOCLDY    53  49  85 NW14G20   29.91S
DULUTH HARBOR  CLEAR     59  55  88 NW20      29.89R
TWO HARBORS    CLEAR     57  52  82 CALM      29.86R
GRAND MARAIS     N/A     57  54  89 NW3       29.79R
G MARAIS ARPRT PTCLDY    52  46  82 NW3       29.82R
$$
MNZ029>031-032-039>041-046>048-054>057-064-221200-
   West Central Minnesota

CITY           SKY/WX    TMP DP  RH WIND       PRES   REMARKS
FERGUS FALLS   CLEAR     48  48 100 N3        30.04S
WHEATON        CLEAR     52  48  87 W5        30.07R
MORRIS         CLEAR     50  48  93 NW6       30.04R
ALEXANDRIA     CLEAR     53  51  93 W6        30.04R
ELBOW LAKE     FAIR      51  50  99 NW5       30.05R
WADENA         CLEAR     50  50 100 W3        30.01S
GLENWOOD       CLEAR     52  52 100 NW8       30.03R
APPLETON       CLEAR     52  48  87 W3        30.05R
BENSON         CLEAR     50  48  93 W3        30.07R
ORTONVILLE     CLEAR     54  50  87 MISG      30.06R
MADISON        CLEAR     54  54 100 W6        30.07R
WILLMAR        FAIR      54  54 100 W7        30.05R
$$
MNZ033>034-036-042>043-049>051-058-059-221200-
   Central Minnesota

CITY           SKY/WX    TMP DP  RH WIND       PRES   REMARKS
ST CLOUD       CLEAR     54  53  97 NW7       29.99R
SAUK CENTRE    FAIR      53  51  94 NW5       30.03R
PAYNESVILLE    CLEAR     53  51  95 W5        30.03R
AITKIN         CLEAR     54  52  94 W3        29.95R
PINE RIVER     CLEAR     48  46  93 CALM      30.01S
BRAINERD       CLEAR     54  51  90 NW7       29.98R
STAPLES        CLEAR     48  48 100 NW5       30.00S
LONG PRAIRIE   FAIR      52  50  93 W7        30.02R
LITTLE FALLS   CLEAR     54  50  87 NW5       30.00R
LITCHFIELD     CLEAR     57  55  94 NW6       30.02R
BUFFALO        CLEAR     58  52  82 NW7       29.99R
MAPLE LAKE     CLEAR     58  55  89 NW7       30.00R
HUTCHINSON     CLEAR     57  55  94 NW8       30.02R
$$
MNZ037-044-045-052-053-221200-
   East Central Minnesota

CITY           SKY/WX    TMP DP  RH WIND       PRES   REMARKS
PRINCETON      CLEAR     55  54  94 W7        29.98R
MORA           CLEAR     55  50  82 NW7       29.97R
CAMBRIDGE      CLEAR     59  55  88 W7        29.96R
RUSH CITY      CLOUDY    56  52  86 NW6       29.94R
MOOSE LAKE     CLEAR     52  50  93 W3        29.92R
HINCKLEY       FAIR      55  54  94 NW6       29.94R
CLOQUET        CLEAR     52  50  93 W8        29.92R
MCGREGOR       CLEAR     52  52 100 W5        29.95R
$$
MNZ071>073-080-081-089-090-097-098-221200-
   Southwest Minnesota

CITY           SKY/WX    TMP DP  RH WIND       PRES   REMARKS
MONTEVIDEO     CLEAR     52  52 100 NW5       30.06R
GRANITE FALLS  CLEAR     54  53  97 W7        30.07R
CANBY          CLEAR     53  49  86 CALM      30.09R
MARSHALL       CLEAR     52  50  93 W8        30.08R
REDWOOD FALLS  CLEAR     55  52  89 NW8       30.03R
OLIVIA         CLEAR     54  52  94 NW6       30.03R
PIPESTONE      CLEAR     54  50  87 NW5       30.09S
WINDOM         CLEAR     55  52  88 NW9       30.05R
WORTHINGTON    CLEAR     54  51  90 NW9       30.08R
JACKSON        CLEAR     54  52  94 NW13G18   30.05R
TRACY          CLEAR     55  53  93 NW8       30.07R
SLAYTON        CLEAR     52  47  84 NW9       30.08R
$$
MNZ065>067-074>077-082>085-091>093-221200-
   South Central Minnesota

CITY           SKY/WX    TMP DP  RH WIND       PRES   REMARKS
MANKATO        CLEAR     58  56  93 NW8       30.00R
NEW ULM        CLEAR     55  54  94 NW9       30.02R
ST JAMES       CLEAR     55  54  94 NW8       30.04R
FAIRMONT       CLEAR     57  54  89 NW12      30.02R
GLENCOE        CLEAR     59  58  97 NW10      29.99R
FARIBAULT      CLEAR     61  57  88 W7        29.97R
OWATONNA       CLEAR     59  57  94 NW9       29.97R
WASECA         CLEAR     57  55  94 NW7       30.00R
ALBERT LEA     CLEAR     63  61  94 NW7       29.98R
$$
MNZ078>079-086>088-094>096-221200-
   Southeast Minnesota

CITY           SKY/WX    TMP DP  RH WIND       PRES   REMARKS
ROCHESTER      CLEAR     60  59  96 NW14      29.94R
RED WING       CLEAR     63  57  82 NW7       29.91R
STANTON        CLEAR     60  58  91 W6        29.94R
DODGE CENTER   CLEAR     61  57  88 NW10      29.95R
WINONA         PTCLDY    63  59  88 NW8       29.89R
AUSTIN         CLEAR     61  57  88 NW12      29.95R
PRESTON        PTCLDY    60  58  93 NW12      29.92R
$$
ABBREVIATIONS USED IN REMARKS
   TC - TEMPERATURES IN CELSIUS
  WCI - WIND CHILL INDEX
   HX - HEAT INDEX
  VSB - VISIBILITY
$$



USA.gov is the U.S. government's official web portal to all federal, state and local government web resources and services.